Kosmos-1691

operational
NORAD ID: 16143 Int'l Des: 1985-094 Owner: GUKOS Country: SU
LEOCIRCULARPOLAR

About Kosmos-1691

Description loading...

Live Position

Loading 3D Globe...

Upcoming Passes

Altitude History

Altitude vs Time

uPlot chart will show altitude changes over time

Two-Line Element Set

1 16143U 85094F 26063.51202844 .00000023 00000-0 67020-4 0 9998
2 16143 82.6081 334.9784 0007248 7.5111 112.2804 12.62895205862280
Epoch: Mar 4, 2026 • Age: 22 hours

Current Status

Altitude 1423.7 km
Velocity 7.16 km/s
Sub-Earth Point 82.38°N, 77.51°W
Launch Date Oct 9, 1985
Age 40.3 years
Type other

Technical Details

Classification Payload
Mass 225.00 kg
Dry Mass 225.00 kg
Total Mass 225.00 kg
Length 1.60 m
Diameter 0.80 m
Span 7.00 m
Shape Cyl + Ant
Manufacturer NPOPM
Bus Type Strela-3
Phase Status In Orbit
Owner/State GUKOS/SU

Large Constellations

Loading constellations...